Regional Weather Roundup
Issued by NWS

Home | Current Version | Previous Version | Graphics & Text | Print | Product List | Glossary On
Versions: 1 2 3 4 5 6 7 8 9 10 11 12 13 14 15 16 17 18 19 20 21 22 23 24 25 26 27 28 29 30 31 32 33 34 35 36 37 38 39 40 41 42 43 44 45 46 47 48 49 50
000
ASUS43 KDTX 120010
RWRMI
MICHIGAN HOURLY REGIONAL WEATHER ROUNDUP
NATIONAL WEATHER SERVICE DETROIT/PONTIAC MI
700 PM EST THU FEB 11 2016

NOTE: "FAIR" INDICATES FEW OR NO CLOUDS BELOW 12,000 FEET WITH NO
SIGNIFICANT WEATHER AND/OR OBSTRUCTION TO VISIBILITY.

MIZ047>049-052>055-059>063-066>070-074>076-081>083-120100-
SOUTHEAST LOWER MICHIGAN

CITY           SKY/WX    TMP DP  RH WIND       PRES   REMARKS
ADRIAN         PTCLDY    18   7  62 W6        30.25R WCI  10
6HR MIN TEMP:  17; 6HR MAX TEMP:  22;

ALMA           PTCLDY    19   6  58 W6        30.21S WCI  10
6HR MIN TEMP:  19; 6HR MAX TEMP:  23;

ANN ARBOR      CLEAR     11   3  70 SW3       30.23R
BAD AXE        CLOUDY     9   2  73 S3        30.19S
CARO           MOCLDY    10   5  79 CALM      30.19S
DETROIT CITY   CLEAR     15   1  53 CALM      30.24R
6HR MIN TEMP:  15; 6HR MAX TEMP:  21;

DETROIT        PTCLDY    19   2  47 W5        30.25R WCI  12
6HR MIN TEMP:  18; 6HR MAX TEMP:  23; 6HR PCP: TRACE;

FLINT          CLOUDY    18   3  52 S6        30.21S WCI  10
6HR MIN TEMP:  17; 6HR MAX TEMP:  20;

GROSSE ILE     CLEAR     19   3  49 CALM      30.24R
HILLSDALE      MOCLDY    17   6  60 SW3       30.21S
6HR MIN TEMP:  17; 6HR MAX TEMP:  21;

HOWELL         CLEAR     16   2  53 SW3       30.20S

CITY           SKY/WX    TMP DP  RH WIND       PRES   REMARKS
JACKSON        MOCLDY    16   7  67 SW7       30.22R WCI   6
6HR MIN TEMP:  16; 6HR MAX TEMP:  21;

LAMBERTVILLE   CLEAR     18   7  61 SW5       30.27R WCI  11
6HR MIN TEMP:  18; 6HR MAX TEMP:  23;

LANSING        CLOUDY    20   4  50 W9        30.22R WCI   9
6HR MIN TEMP:  19; 6HR MAX TEMP:  23;

LAPEER         FAIR       5   0  79 S3        30.20S
6HR MIN TEMP:   5; 6HR MAX TEMP:  17;

MASON          MOCLDY    18   4  55 SW5       30.21S WCI  11
MONROE         CLEAR     17   5  59 SW5       30.25R WCI  10
6HR MIN TEMP:  16; 6HR MAX TEMP:  23;

MT. CLEMENS    PTCLDY    14   2  58 CALM      30.22S
6HR MIN TEMP:  13; 6HR MAX TEMP:  19;

PONTIAC        PTCLDY    15   4  61 S3        30.19S
6HR MIN TEMP:  14; 6HR MAX TEMP:  18;

PORT HOPE        N/A     13   3  64 SW6       30.17S WCI   4
6HR MIN TEMP:  12; 6HR MAX TEMP:  16;

PORT HURON     CLEAR      7   1  78 CALM      30.24S
TRI CITIES     CLOUDY    20   5  52 W10       30.21R WCI   9
6HR MIN TEMP:  17; 6HR MAX TEMP:  21;

MIDLAND        FAIR      18   2  50 W5        30.20R WCI  11
6HR MIN TEMP:  17; 6HR MAX TEMP:  21;

TROY           CLEAR     18   4  53 CALM      30.24S
SAGINAW HB     CLOUDY    18  10  73 SW5       30.21R WCI  11
$$
MIZ043>046-050>051-056>058-064>065-071>073-077>080-120100-
SOUTHWEST LOWER MICHIGAN

CITY           SKY/WX    TMP DP  RH WIND       PRES   REMARKS
BATTLE CREEK   CLOUDY    19  11  70 W9        30.24R WCI   8
6HR MIN TEMP:  17; 6HR MAX TEMP:  22; 6HR PCP: TRACE;

BENTON HARBOR  CLOUDY    19   8  62 SW12      30.29R WCI   7
6HR MIN TEMP:  17; 6HR MAX TEMP:  21; 6HR PCP: TRACE;

BIG RAPIDS     MOCLDY    16   4  61 W5        30.19R WCI   9
6HR MIN TEMP:  16; 6HR MAX TEMP:  21;

COLDWATER      CLOUDY    19   7  57 W8        30.24R WCI   9
6HR MIN TEMP:  17; 6HR MAX TEMP:  22;

FREMONT        FLURRIES  15   5  65 W5        30.23R WCI   7
HOLLAND        CLOUDY    18   8  65 W5        30.26S WCI  11
6HR MIN TEMP:  18; 6HR MAX TEMP:  21; 6HR PCP: TRACE;

GRAND RAPIDS   MOCLDY    19   7  59 W10       30.24R WCI   7
6HR MIN TEMP:  19; 6HR MAX TEMP:  25;

IONIA          CLOUDY    19   6  57 W9        30.21R WCI   8
6HR MIN TEMP:  19; 6HR MAX TEMP:  24;

KALAMAZOO      CLOUDY    19  10  68 W7        30.25R WCI  10
6HR MIN TEMP:  18; 6HR MAX TEMP:  21; 6HR PCP: TRACE;

LUDINGTON      MOCLDY    18   8  63 W8        30.22S WCI   8
6HR MIN TEMP:  17; 6HR MAX TEMP:  19;

MARSHALL       MOCLDY    18  12  79 W8        30.23R WCI   7
6HR MIN TEMP:  18; 6HR MAX TEMP:  23;

MOUNT PLEASANT CLEAR     19   4  53 W8        30.19R WCI   9
MUSKEGON       MOCLDY    19   7  59 W7        30.25S WCI  10
6HR MIN TEMP:  17; 6HR MAX TEMP:  22; 6HR PCP: TRACE;

SOUTH HAVEN    CLOUDY    19   7  60 W3        30.27S
$$
MIZ016>042-120100-
NORTHERN LOWER MICHIGAN

CITY           SKY/WX    TMP DP  RH WIND       PRES   REMARKS
ALPENA         CLOUDY    17   4  56 W9G18     30.13S WCI   6
6HR MIN TEMP:  11; 6HR MAX TEMP:  19;

BEAVER ISLAND  CLOUDY    18   6  58 W7        30.13F WCI   9
6HR MIN TEMP:  16; 6HR MAX TEMP:  18;

BELLAIRE       CLOUDY    18   8  65 W5        30.17S WCI  11
6HR MIN TEMP:  16; 6HR MAX TEMP:  19;

CADILLAC       MOCLDY    13   4  65 W8        30.13S WCI   2
CHARLEVOIX     CLOUDY    19   9  65 W14       30.17S WCI   5
6HR MIN TEMP:  16; 6HR MAX TEMP:  19;

FRANKFORT      MOCLDY    19   7  61 W6        30.19R WCI  10
GAYLORD        LGT SNOW  14   8  77 W9        30.09R WCI   2
6HR MIN TEMP:  13; 6HR MAX TEMP:  16; 6HR PCP: TRACE;

GRAYLING       CLOUDY    15   5  65 W7        30.13S WCI   5
HARBOR SPRINGS CLOUDY    17   4  55 W8G16     30.13R WCI   7
HOUGHTON LAKE  CLOUDY    15   4  61 W12       30.14R WCI   2
6HR MIN TEMP:  14; 6HR MAX TEMP:  17; 6HR PCP: TRACE;

MANISTEE       MOCLDY    18   5  57 W6        30.20S WCI   9
OSCODA         CLOUDY    16   6  65 SW7       30.16S WCI   6
6HR MIN TEMP:  12; 6HR MAX TEMP:  18;

PELLSTON       CLOUDY    16   4  59 W9        30.13R WCI   4
6HR MIN TEMP:  13; 6HR MAX TEMP:  17; 6HR PCP: TRACE;

ROGERS CITY    CLOUDY    15   9  76 W7        30.13S WCI   5
TRAVERSE CITY  CLOUDY    17   5  59 W5        30.17S WCI  10
6HR MIN TEMP:  17; 6HR MAX TEMP:  19; 6HR PCP: TRACE;

$$
MIZ007>008-015-120100-
EASTERN UPPER MICHIGAN

CITY           SKY/WX    TMP DP  RH WIND       PRES   REMARKS
KINROSS        MOCLDY    12   9  85 W10       30.07S WCI  -1
6HR MIN TEMP:   7; 6HR MAX TEMP:  16;

MACKINAC ISLAN CLOUDY    16   4  60 W17G23    30.10S WCI   0
6HR MIN TEMP:   9; 6HR MAX TEMP:  18;

NEWBERRY       CLOUDY    13   5  69 SW13      30.07S WCI  -1
6HR MIN TEMP:  13; 6HR MAX TEMP:  17;

S. S. MARIE    MOCLDY    15   6  67 W13G21    30.06R WCI   1
6HR MIN TEMP:   5; 6HR MAX TEMP:  17; 6HR PCP:  0.03;

MUNISING         N/A     14   4  64 SW3       30.11S
6HR MIN TEMP:  14; 6HR MAX TEMP:  17;

$$
MIZ004>006-011>014-085-120100-
CENTRAL UPPER MICHIGAN

CITY           SKY/WX    TMP DP  RH WIND       PRES   REMARKS
MANISTIQUE     CLOUDY    14   3  61 SW3       30.13S
6HR MIN TEMP:  12; 6HR MAX TEMP:  19;

ESCANABA       CLOUDY    12   5  73 CALM      30.14S
6HR MIN TEMP:  12; 6HR MAX TEMP:  19;

MENOMINEE      CLOUDY    16   0  48 SW7       30.16S WCI   6
6HR MIN TEMP:  14; 6HR MAX TEMP:  19;

SAWYER-GWINN   CLOUDY    10   1  67 SW7       30.07S WCI   0
$$
MIZ001>003-009>011-084-120100-
WESTERN UPPER MICHIGAN

CITY           SKY/WX    TMP DP  RH WIND       PRES   REMARKS
IRON MOUNTAIN  CLOUDY    16  -2  45 W8        30.09R WCI   5
6HR MIN TEMP:  14; 6HR MAX TEMP:  19;

HOUGHTON       FLURRIES  12   4  70 SW12      30.04F WCI  -2
6HR MIN TEMP:  11; 6HR MAX TEMP:  15; 6HR PCP: TRACE;

COPPER HARBOR    N/A     15  12  88 W7        30.04F WCI   5
6HR MIN TEMP:  13; 6HR MAX TEMP:  17; 6HR PCP:  0.04;

IRONWOOD       CLOUDY    12  -2  52 W12       30.08S WCI  -2
6HR MIN TEMP:   9; 6HR MAX TEMP:  14;

$$

ABBREVIATIONS USED IN REMARKS
   TC - TEMPERATURE IN CELSIUS
  WCI - WIND CHILL INDEX
   HX - HEAT INDEX
  VSB - VISIBILITY




USA.gov is the U.S. government's official web portal to all federal, state and local government web resources and services.